COSMOS 2251 DEB, 35015

Orbit data source: Space-Track

COSMOS 2251 DEB, 35015 is space debris in LEO originally from a launch on Wed, 16 Jun 1993 UTC launched from the Plesetsk Missile And Space Complex (PKMTR). The debris from Iridium 33, an American commercial communications satellite, has been tracked extensively since its accidental collision with the defunct Russian satellite Cosmos 2251 in 2009. This event, occurring at high speed in low Earth orbit (LEO), generated thousands of pieces of space debris, significantly increasing the risk of further collisions. The Iridium 33 debris cloud has impacted space traffic management and orbital debris mitigation strategies, making it a subject of ongoing study in space situational awareness.

Loading next visibility...
Identifier
35015, 1993-036AGC
Orbit
LEO
Country
Flag of CISCIS
Related business
Manufacturer
Unknown
Mission
Spacecraft
Bus & Motor
Unknown
Mass
Unknown
Launch date (UTC)
1993-06-16 (33 years ago)
Launch vehicle
Unknown
Launch site
Plesetsk Missile And Space Complex (PKMTR)
Object type
Payload
Rocket body
Debris
Shape & HBR
Unknown shape, 0.1 m
Radar Cross Section
Small (<0.1 m²)

Expand to show TLE details & history
Last TLE update: 14 hours ago

TLE from 14 hours ago
0 COSMOS 2251 DEB
1 35015U 93036AGC 26035.56011653  .00003413  00000-0  90743-3 0  9995
2 35015  73.9485 133.5923 0076157 348.3308  26.3422 14.47253635662196
Epoch: 2026-02-04T13:26Z
TLE epoch observation values (Epoch: 2026-02-04T13:26:34.068Z)
Latitude
14.44136°
Longitude
161.45167°
Altitude
688.058 km
Speed
7.539 km/s
True Right ascension
09h 11m 16s
True Declination
14° 21' 28"
Sunlit
Object was in full shadow at epoch
Visualization orbit readout
Latitude
Unknown
Longitude
Unknown
Altitude
Unknown
Speed
Unknown
Apparent Right ascension
Unknown
Apparent Declination
Unknown
Sunlit
N/A
Visualization observer readout
Local Sidereal Time
05:54:24
Azimuth
Unknown
Elevation
Unknown
Doppler factor
Unknown
Orbital elements
Apogee altitude
786.402 km
Perigee altitude
678.101 km
Semi-major axis
7,110.389 km
Eccentricity
0.00762
Inclination
73.9485°
RAAN
133.5923°
Arg. of periapsis
348.3308°
True anomaly
26.73277°
Mean anomaly
26.3422°
Eccentric anomaly
26.53715°
Mean motion
3.61996 °/min
Orbital period
99.45 mins
BSTAR
0.00090743
Loading maneuver chart data...
Computing Atmospheric mass density...

Documentation

Showing up to 5 results
|